Weather History for KY70 - January, 2014

Change the Weather History Date:

Friday, January 17, 2014

  Actual Average (KGRR) Record (KGRR)
Temperature  
Mean Temperature 24 °F 24 °F  
Max Temperature 30 °F 30 °F 56 °F (1952)
Min Temperature 16 °F 18 °F -10 °F (1976)
Degree Days  
Heating Degree Days 42 41  
Month to date heating degree days 688  
Since 1 July heating degree days 3137  
Cooling Degree Days 0 0  
Month to date cooling degree days 0  
Year to date cooling degree days 0  
Moisture  
Dew Point 18 °F    
Average Humidity 83    
Maximum Humidity 93    
Minimum Humidity 75    
Precipitation  
Precipitation 0.00 in 0.07 in 0.97 in (1897)
Month to date precipitation 1.26  
Year to date precipitation 1.26  
Snow  
Snow 0.00 in 0.70 in 4.70 in (2009)
Month to date snowfall 11.9  
Since 1 July snowfall 41.1  
Snow Depth -    
Sea Level Pressure  
Sea Level Pressure 29.74 in    
Wind  
Wind Speed 13 mph (WSW)    
Max Wind Speed 22 mph    
Max Gust Speed 33 mph    
Visibility 9 miles    
Events Snow    
T = Trace of Precipitation, MM = Missing Value Source: NWS Daily Summary

Daily Weather History Graph

Daily Weather History Graph

Search for Another Location

Airport or City:

Trip Planner

Search our weather history database for the weather conditions in past years. The results will help you decide how hot, cold, wet, or windy it might be!

Date:

Astronomy

Jan. 17, 2014 Rise Set
Actual Time 8:07 AM EST 5:33 PM EST
Civil Twilight 7:36 AM EST 6:04 PM EST
Nautical Twilight 7:01 AM EST 6:39 PM EST
Astronomical Twilight 6:27 AM EST 7:13 PM EST
Moon 7:23 PM EST (1/17) 8:31 AM EST (1/17)
Length of Visible Light 10h 28m
Length of Day
9h 26m
Full, 98% of the Moon is Illuminated
Jan 17
Full
Jan 24
Last Quarter
Jan 30
New
Feb 6
First Quarter
Feb 14
Full

Hourly Weather History & Observations

Time (EST) Temp. Windchill Dew Point Humidity Pressure Visibility Wind Dir Wind Speed Gust Speed Precip Events Conditions
12:14 AM 29.5 °F 20.4 °F 27.3 °F 92% 29.55 in 7.0 mi SSW 10.4 mph - N/A Snow Light Snow
12:34 AM 29.7 °F 20.7 °F 27.5 °F 92% 29.54 in 7.0 mi SSW 10.4 mph - N/A Snow Light Snow
12:54 AM 29.8 °F 19.8 °F 27.9 °F 92% 29.53 in 7.0 mi SW 12.7 mph 17.3 mph N/A   Overcast
1:14 AM 30.2 °F 18.5 °F 28.0 °F 92% 29.54 in 7.0 mi SW 17.3 mph 23.0 mph N/A   Overcast
1:34 AM 29.8 °F 18.4 °F 27.5 °F 91% 29.54 in 10.0 mi SW 16.1 mph 23.0 mph N/A   Overcast
1:54 AM 29.8 °F 17.7 °F 27.7 °F 92% 29.55 in 5.0 mi WSW 18.4 mph 25.3 mph N/A Snow Light Snow
2:14 AM 29.1 °F 16.0 °F 27.3 °F 93% 29.56 in 5.0 mi WSW 20.7 mph 27.6 mph N/A Snow Light Snow
2:34 AM 28.2 °F 14.5 °F 26.4 °F 93% 29.57 in 2.5 mi WSW 21.9 mph 33.4 mph N/A Snow Light Snow
2:54 AM 27.5 °F 13.9 °F 25.3 °F 92% 29.58 in 4.0 mi West 20.7 mph 27.6 mph N/A   Overcast
3:14 AM 27.3 °F 15.2 °F 24.6 °F 90% 29.60 in 10.0 mi West 16.1 mph 21.9 mph N/A   Overcast
3:34 AM 27.0 °F 13.9 °F 24.8 °F 92% 29.60 in 7.0 mi West 18.4 mph 21.9 mph N/A Snow Light Snow
3:54 AM 26.8 °F 15.9 °F 24.3 °F 90% 29.61 in 10.0 mi West 12.7 mph - N/A   Overcast
4:14 AM 26.6 °F 14.3 °F 23.9 °F 90% 29.61 in 10.0 mi West 16.1 mph 20.7 mph N/A   Overcast
4:34 AM 26.4 °F 15.5 °F 23.5 °F 89% 29.62 in 10.0 mi West 12.7 mph - N/A   Overcast
4:54 AM 26.1 °F 12.0 °F 22.6 °F 87% 29.63 in 10.0 mi West 20.7 mph - N/A   Overcast
5:14 AM 25.7 °F 12.7 °F 21.7 °F 85% 29.64 in 10.0 mi WSW 17.3 mph 21.9 mph N/A   Overcast
5:34 AM 25.2 °F 12.0 °F 20.8 °F 84% 29.65 in 10.0 mi West 17.3 mph - N/A   Overcast
5:54 AM 24.8 °F 12.4 °F 19.4 °F 80% 29.66 in 7.0 mi West 15.0 mph 24.2 mph N/A   Overcast
6:14 AM 24.8 °F 12.4 °F 19.4 °F 80% 29.67 in 10.0 mi West 15.0 mph 21.9 mph N/A   Overcast
6:34 AM 24.3 °F 12.7 °F 19.6 °F 82% 29.67 in 10.0 mi West 12.7 mph - N/A   Overcast
6:54 AM 23.9 °F 14.2 °F 19.0 °F 82% 29.68 in 10.0 mi West 9.2 mph - N/A   Overcast
7:14 AM 23.9 °F 13.5 °F 19.4 °F 83% 29.69 in 10.0 mi West 10.4 mph 16.1 mph N/A   Overcast
7:34 AM 23.9 °F 12.3 °F 19.4 °F 83% 29.69 in 10.0 mi West 12.7 mph - N/A   Overcast
7:54 AM 23.5 °F 10.8 °F 19.0 °F 83% 29.70 in 10.0 mi West 15.0 mph - N/A   Overcast
8:14 AM 22.5 °F 9.9 °F 17.6 °F 82% 29.70 in 10.0 mi West 13.8 mph - N/A   Overcast
8:34 AM 22.6 °F 9.6 °F 17.6 °F 81% 29.71 in 10.0 mi West 15.0 mph 20.7 mph N/A   Overcast
8:54 AM 22.6 °F 10.1 °F 18.0 °F 82% 29.72 in 10.0 mi West 13.8 mph 18.4 mph N/A   Overcast
9:14 AM 22.5 °F 11.1 °F 17.2 °F 80% 29.73 in 10.0 mi West 11.5 mph - N/A   Overcast
9:34 AM 22.1 °F 10.6 °F 16.7 °F 80% 29.73 in 10.0 mi West 11.5 mph - N/A   Overcast
9:54 AM 22.5 °F 11.7 °F 17.6 °F 82% 29.74 in 10.0 mi West 10.4 mph - N/A   Overcast
10:14 AM 22.1 °F 10.6 °F 16.7 °F 80% 29.75 in 10.0 mi West 11.5 mph 16.1 mph N/A   Overcast
10:34 AM 22.8 °F 11.5 °F 17.2 °F 79% 29.75 in 10.0 mi West 11.5 mph 16.1 mph N/A   Overcast
10:54 AM 22.8 °F 12.9 °F 17.4 °F 80% 29.75 in 10.0 mi West 9.2 mph - N/A   Overcast
11:14 AM 22.8 °F 12.2 °F 17.8 °F 81% 29.76 in 10.0 mi West 10.4 mph - N/A   Overcast
11:34 AM 23.0 °F 11.1 °F 18.1 °F 82% 29.76 in 10.0 mi West 12.7 mph - N/A   Overcast
11:54 AM 23.0 °F 11.1 °F 17.6 °F 80% 29.76 in 10.0 mi West 12.7 mph - N/A   Overcast
12:14 PM 22.8 °F 10.9 °F 17.8 °F 81% 29.76 in 10.0 mi WSW 12.7 mph - N/A   Overcast
12:34 PM 23.0 °F 13.9 °F 17.8 °F 80% 29.76 in 10.0 mi WNW 8.1 mph - N/A   Overcast
12:54 PM 23.2 °F 12.6 °F 16.9 °F 77% 29.76 in 10.0 mi West 10.4 mph - N/A   Overcast
1:14 PM 23.0 °F 11.1 °F 16.7 °F 77% 29.76 in 10.0 mi West 12.7 mph - N/A   Overcast
1:34 PM 22.8 °F 11.5 °F 17.1 °F 79% 29.76 in 10.0 mi West 11.5 mph - N/A   Overcast
1:54 PM 22.5 °F 9.9 °F 17.1 °F 80% 29.77 in 10.0 mi West 13.8 mph - N/A   Overcast
2:14 PM 22.8 °F 10.4 °F 16.5 °F 77% 29.77 in 10.0 mi West 13.8 mph 17.3 mph N/A Snow Light Snow
2:34 PM 22.1 °F 8.9 °F 15.8 °F 77% 29.77 in 10.0 mi West 15.0 mph 18.4 mph N/A Snow Light Snow
2:54 PM 22.1 °F 10.6 °F 16.2 °F 78% 29.78 in 10.0 mi West 11.5 mph - N/A   Overcast
3:14 PM 21.9 °F 10.4 °F 15.6 °F 77% 29.78 in 10.0 mi West 11.5 mph 16.1 mph N/A   Overcast
3:34 PM 21.6 °F 8.2 °F 15.4 °F 77% 29.79 in 10.0 mi West 15.0 mph 18.4 mph N/A   Overcast
3:54 PM 21.6 °F 9.3 °F 14.9 °F 76% 29.80 in 10.0 mi West 12.7 mph - N/A   Overcast
4:14 PM 21.4 °F 10.4 °F 14.9 °F 76% 29.81 in 10.0 mi West 10.4 mph - N/A   Overcast
4:34 PM 21.2 °F 10.1 °F 14.7 °F 76% 29.82 in 10.0 mi West 10.4 mph - N/A   Overcast
4:54 PM 20.8 °F 9.0 °F 14.0 °F 75% 29.83 in 10.0 mi West 11.5 mph - N/A   Overcast
5:14 PM 20.7 °F 6.6 °F 14.2 °F 76% 29.83 in 10.0 mi West 16.1 mph - N/A   Overcast
5:34 PM 20.3 °F 6.6 °F 14.0 °F 77% 29.84 in 7.0 mi West 15.0 mph 20.7 mph N/A   Overcast
5:54 PM 19.4 °F 6.6 °F 13.1 °F 76% 29.84 in 10.0 mi West 12.7 mph - N/A   Overcast
6:14 PM 19.4 °F 7.2 °F 13.8 °F 79% 29.84 in 10.0 mi WSW 11.5 mph - N/A   Overcast
6:34 PM 18.9 °F 7.2 °F 13.8 °F 81% 29.85 in 10.0 mi West 10.4 mph - N/A   Overcast
6:54 PM 19.0 °F 8.2 °F 14.4 °F 82% 29.85 in 10.0 mi WSW 9.2 mph - N/A   Overcast
7:14 PM 19.2 °F 7.0 °F 14.7 °F 83% 29.86 in 7.0 mi WSW 11.5 mph - N/A   Overcast
7:34 PM 19.2 °F 7.0 °F 14.5 °F 82% 29.87 in 10.0 mi West 11.5 mph - N/A   Overcast
7:54 PM 19.2 °F 8.4 °F 14.4 °F 81% 29.87 in 10.0 mi WSW 9.2 mph - N/A   Overcast
8:14 PM 19.0 °F 7.5 °F 14.5 °F 83% 29.86 in 10.0 mi WSW 10.4 mph - N/A   Overcast
8:34 PM 18.9 °F 5.9 °F 14.5 °F 83% 29.86 in 10.0 mi WSW 12.7 mph 17.3 mph N/A   Overcast
8:54 PM 18.7 °F 7.0 °F 14.2 °F 83% 29.87 in 10.0 mi WSW 10.4 mph - N/A   Overcast
9:14 PM 18.5 °F 5.5 °F 14.0 °F 83% 29.87 in 10.0 mi WSW 12.7 mph - N/A   Overcast
9:34 PM 18.3 °F 6.6 °F 13.8 °F 83% 29.87 in 10.0 mi WSW 10.4 mph - N/A   Overcast
9:54 PM 18.1 °F 6.3 °F 13.8 °F 83% 29.87 in 10.0 mi WSW 10.4 mph - N/A   Overcast
10:14 PM 18.3 °F 6.6 °F 13.8 °F 83% 29.88 in 10.0 mi WSW 10.4 mph - N/A   Overcast
10:34 PM 18.1 °F 6.3 °F 13.6 °F 83% 29.87 in 10.0 mi SW 10.4 mph - N/A   Overcast
10:54 PM 17.6 °F 6.4 °F 13.1 °F 83% 29.87 in 10.0 mi SW 9.2 mph - N/A   Overcast
11:14 PM 17.2 °F 4.5 °F 12.7 °F 83% 29.87 in 10.0 mi SW 11.5 mph 17.3 mph N/A   Overcast
11:34 PM 17.1 °F 5.0 °F 12.6 °F 82% 29.86 in 10.0 mi SW 10.4 mph - N/A   Overcast
11:54 PM 16.7 °F 5.3 °F 12.2 °F 82% 29.85 in 10.0 mi SSW 9.2 mph - N/A   Overcast